1487898000.5,34688,8.69,71832.5,-3.89,-22.21,-23.03,0,*52
1487898001.74,34689,8.69,71846.0,-3.89,-22.41,-23.09,0,*5F
1487898002.98,34690,8.69,71852.5,-3.89,-22.37,-23.39,0,*55
1487898004.24,34691,8.69,71868.3,-3.89,-22.53,-23.53,0,*5A
1487898005.51,34692,8.69,71820.8,-3.89,-22.27,-23.19,0,*54
1487898006.75,34693,8.69,71828.3,-3.89,-22.53,-23.39,0,*54
1487898008.02,34694,8.69,71716.5,-3.89,-22.37,-23.19,0,*53
1487898009.28,34695,8.69,71804.3,-3.89,-22.53,-23.49,0,*55
1487898010.49,34696,8.69,71606.3,-3.87,-22.37,-23.13,0,*55
1487898011.76,34697,8.69,71686.0,-3.89,-22.41,-23.23,0,*58
1487898013.02,34698,8.69,71748.8,-3.89,-22.03,-23.03,0,*53
1487898014.28,34699,8.69,71770.3,-3.87,-21.87,-22.77,0,*51
1487898015.54,34700,8.69,71766.0,-3.87,-21.97,-22.77,0,*51
1487898016.8,34701,8.69,71794.3,-3.87,-22.21,-23.03,0,*5C
1487898018.04,34702,8.69,71808.5,-3.87,-22.37,-23.19,0,*53
1487898019.28,34703,8.69,71782.8,-3.83,-22.17,-22.97,0,*53
1487898020.54,34704,8.69,71730.5,-3.87,-21.97,-22.77,0,*55
1487898021.79,34705,8.69,71768.0,-3.83,-21.83,-22.73,0,*51
1487898023.06,34706,8.69,71668.5,-3.81,-21.67,-22.57,0,*5C
1487898024.27,34707,8.69,71728.8,-3.83,-21.77,-22.63,0,*59
1487898025.55,34708,8.69,71714.0,-3.81,-21.97,-22.77,0,*5F
1487898026.84,34709,8.69,71722.8,-3.81,-21.97,-22.77,0,*5E
1487898028.12,34710,8.69,71768.0,-3.81,-21.97,-22.77,0,*56
1487898029.41,34711,8.69,71748.8,-3.81,-21.83,-22.73,0,*56
1487898030.67,34712,8.69,71752.3,-3.81,-21.47,-22.47,0,*5A
1487898031.88,34713,8.69,71796.0,-3.79,-22.11,-22.93,0,*55
1487898033.09,34714,8.69,71816.0,-3.79,-22.11,-22.93,0,*52
1487898034.37,34715,8.69,71810.8,-3.81,-22.31,-23.29,0,*56
1487898035.58,34716,8.69,71858.5,-3.79,-22.41,-23.39,0,*54
1487898036.81,34717,8.69,71850.5,-3.79,-22.41,-23.33,0,*5F
1487898038.04,34718,8.69,71892.3,-3.79,-22.27,-23.23,0,*51
1487898039.28,34719,8.69,71816.8,-3.79,-22.27,-23.19,0,*59
1487898040.48,34720,8.69,71860.0,-3.79,-22.07,-22.93,0,*52
1487898041.71,34721,8.69,71884.8,-3.79,-22.37,-23.33,0,*5B
1487898042.95,34722,8.69,71878.8,-3.79,-22.57,-23.65,0,*5D
1487898044.18,34723,8.69,71828.5,-3.79,-22.37,-23.33,0,*59
1487898045.44,34724,8.69,71862.5,-3.79,-22.21,-23.19,0,*51
1487898046.68,34725,8.69,71864.5,-3.79,-22.27,-23.23,0,*5F
1487898047.9,34726,8.69,71870.0,-3.79,-22.41,-23.33,0,*5D
1487898049.14,34727,8.69,71866.5,-3.79,-22.37,-23.33,0,*5D
1487898050.4,34728,8.69,71870.8,-3.81,-22.47,-23.39,0,*58
1487898051.63,34729,8.69,71844.8,-3.79,-22.41,-23.49,0,*5F
1487898052.87,34730,8.69,71872.0,-3.79,-22.53,-23.49,0,*54
1487898054.1,34731,8.69,71846.0,-3.83,-22.73,-23.75,0,*5D
1487898055.38,34732,8.69,71860.0,-3.81,-22.77,-23.69,0,*55
1487898056.61,34733,8.69,71856.8,-3.79,-22.83,-23.69,0,*58
1487898057.87,34734,8.69,71884.5,-3.81,-22.73,-23.75,0,*5A
1487898059.1,34735,8.69,71876.3,-3.83,-22.73,-23.75,0,*59
1487898060.36,34736,8.69,71760.8,-3.81,-22.77,-23.75,0,*5C
1487898061.6,34737,8.69,71794.3,-3.83,-22.73,-23.75,0,*5B
1487898062.83,34738,8.69,71812.8,-3.83,-22.57,-23.53,0,*56
1487898064.11,34739,8.69,71858.5,-3.81,-22.31,-23.29,0,*58
1487898065.4,34740,8.69,71832.5,-3.81,-22.31,-23.23,0,*5C
1487898066.61,34741,8.69,71876.3,-3.79,-22.57,-23.75,0,*59
1487898067.84,34742,8.69,71886.0,-3.79,-22.67,-23.65,0,*58
1487898069.09,34743,8.69,71880.8,-3.79,-22.73,-23.65,0,*5C
1487898070.37,34744,8.69,71910.5,-3.81,-22.73,-23.69,0,*50
1487898071.63,34745,8.69,71888.0,-3.81,-22.47,-23.39,0,*53
1487898072.87,34746,8.69,71870.8,-3.81,-22.27,-23.09,0,*55
1487898074.14,34747,8.69,71806.8,-3.81,-22.17,-23.09,0,*57
1487898075.39,34748,8.69,71804.0,-3.81,-22.63,-23.53,0,*54
1487898076.64,34749,8.69,71802.3,-3.81,-22.57,-23.43,0,*53
1487898077.89,34750,8.69,71838.8,-3.81,-22.73,-23.59,0,*56
1487898079.14,34751,8.69,71926.3,-3.81,-22.57,-23.43,0,*5A
1487898080.37,34752,8.69,71762.8,-3.79,-22.11,-23.03,0,*58
1487898081.65,34753,8.69,71802.3,-3.81,-22.31,-23.29,0,*54
1487898082.88,34754,8.69,71826.3,-3.79,-22.57,-23.53,0,*59
1487898084.11,34755,8.69,71836.0,-3.81,-22.63,-23.59,0,*52
1487898085.36,34756,8.69,71786.5,-3.81,-22.57,-23.43,0,*5D
1487898086.63,34757,8.69,71796.8,-3.81,-22.73,-23.69,0,*52
1487898087.9,34758,8.69,71810.0,-3.81,-22.77,-23.75,0,*54
1487898089.13,34759,8.69,71830.8,-3.79,-22.67,-23.65,0,*52
1487898090.36,34760,8.69,71804.8,-3.79,-22.53,-23.49,0,*51
1487898091.57,34761,8.69,71852.8,-3.79,-22.27,-23.09,0,*57
1487898092.79,34762,8.69,71766.8,-3.79,-22.11,-22.93,0,*53
1487898094.05,34763,8.69,71714.3,-3.81,-22.31,-23.43,0,*5B
1487898095.32,34764,8.69,71760.3,-3.81,-22.47,-23.43,0,*5D
1487898096.59,34765,8.69,71786.0,-3.77,-22.73,-23.69,0,*5A
1487898097.82,34766,8.69,71816.0,-3.79,-22.93,-23.95,0,*5A
1487898099.05,34767,8.69,71830.0,-3.79,-22.87,-23.99,0,*52
1487898100.31,34768,8.69,71838.5,-3.81,-23.09,-23.99,0,*5D
1487898101.57,34769,8.69,71732.3,-3.81,-22.93,-23.99,0,*5E
1487898102.83,34770,8.69,71860.8,-3.81,-22.87,-23.85,0,*5E
1487898104.09,34771,8.69,71884.3,-3.81,-23.09,-23.99,0,*55
1487898105.32,34772,8.69,71876.5,-3.81,-22.93,-23.89,0,*55
1487898106.58,34773,8.69,71876.3,-3.83,-23.23,-24.21,0,*59
1487898107.87,34774,8.69,71862.0,-3.81,-23.29,-24.25,0,*52
1487898109.08,34775,8.69,71766.8,-3.83,-23.09,-24.05,0,*51
1487898110.28,34776,8.69,71724.8,-3.83,-22.41,-23.39,0,*57
1487898111.49,34777,8.69,71646.3,-3.83,-22.03,-22.93,0,*51
1487898112.7,34778,8.69,71696.8,-3.83,-21.63,-22.63,0,*54
1487898113.99,34779,8.69,71698.3,-3.81,-21.83,-22.77,0,*5C
1487898115.19,34780,8.69,71728.8,-3.79,-22.27,-23.39,0,*5B
1487898116.45,34781,8.69,71704.0,-3.79,-22.21,-23.33,0,*56
1487898117.68,34782,8.69,71692.8,-3.79,-22.57,-23.65,0,*57
1487898118.93,34783,8.69,71670.8,-3.79,-22.73,-23.65,0,*50
1487898120.14,34784,8.69,71666.8,-3.79,-22.83,-23.79,0,*55
1487898121.37,34785,8.69,71740.5,-3.79,-22.83,-23.85,0,*57
1487898122.62,34786,8.69,71714.5,-3.81,-22.63,-23.69,0,*5F
1487898123.85,34787,8.69,71762.3,-3.79,-22.73,-23.79,0,*59
1487898125.08,34788,8.69,71774.3,-3.79,-22.87,-23.85,0,*5E
1487898126.33,34789,8.69,71824.8,-3.77,-22.41,-23.65,0,*55
1487898127.57,34790,8.69,71806.8,-3.81,-22.57,-23.59,0,*5C
1487898128.81,34791,8.69,71854.0,-3.81,-22.57,-23.59,0,*5D
1487898130.03,34792,8.69,71858.3,-3.81,-22.87,-23.89,0,*5E
1487898131.27,34793,8.69,71842.0,-3.81,-22.93,-23.89,0,*5A
1487898132.52,34794,8.69,71858.8,-3.81,-22.73,-23.75,0,*50
1487898133.76,34795,8.69,71876.0,-3.81,-22.93,-23.89,0,*5C
1487898135.05,34796,8.69,71824.5,-3.81,-22.77,-23.85,0,*59
1487898136.3,34797,8.69,71798.5,-3.81,-22.87,-23.99,0,*5A
1487898137.6,34798,8.69,71766.8,-3.81,-22.77,-23.85,0,*57
1487898138.81,34799,8.69,71814.5,-3.83,-22.57,-23.59,0,*57
1487898140.09,34800,8.69,71828.5,-3.81,-21.97,-23.23,0,*58
1487898141.35,34801,8.69,71838.3,-3.81,-21.97,-22.87,0,*56
1487898142.58,34802,8.69,71868.3,-3.83,-21.83,-23.39,0,*56
1487898143.84,34803,8.69,71888.8,-3.81,-22.11,-23.29,0,*5C
1487898145.09,34804,8.69,71860.8,-3.81,-22.11,-23.29,0,*5B
1487898146.35,34805,8.69,71878.0,-3.81,-22.31,-23.59,0,*5F
1487898147.58,34806,8.69,71896.3,-3.83,-22.41,-23.69,0,*5A
1487898148.82,34807,8.69,71822.3,-3.81,-21.93,-22.97,0,*55
1487898150.05,34808,8.69,71864.8,-3.81,-21.93,-22.87,0,*5B
1487898151.3,34809,8.69,71886.3,-3.81,-21.77,-22.93,0,*55
1487898152.53,34810,8.69,71886.5,-3.81,-21.77,-22.87,0,*58
1487898153.77,34811,8.69,71906.8,-3.79,-21.87,-23.09,0,*56
1487898155.01,34812,8.69,71888.5,-3.79,-21.93,-23.03,0,*5A
1487898156.24,34813,8.69,71846.8,-3.79,-21.97,-23.09,0,*55
1487898157.48,34814,8.69,71844.8,-3.79,-21.93,-23.19,0,*57
1487898158.73,34815,8.69,71870.5,-3.77,-22.27,-23.33,0,*5C
1487898159.99,34816,8.69,71872.5,-3.77,-22.37,-23.65,0,*5D
1487898161.24,34817,8.69,71886.8,-3.77,-22.41,-23.49,0,*53
1487898162.51,34818,8.69,71878.0,-3.77,-22.37,-23.23,0,*51
1487898163.76,34819,8.69,71876.8,-3.77,-22.11,-23.03,0,*56
1487898165.0,34820,8.69,71878.0,-3.77,-21.77,-22.87,0,*52
1487898166.2,34821,8.69,71864.5,-3.79,-21.47,-22.27,0,*54
1487898167.46,34822,8.69,71864.8,-3.79,-21.87,-23.33,0,*5F
1487898168.74,34823,8.69,71810.8,-3.77,-22.21,-23.65,0,*5C
1487898169.97,34824,8.69,71852.0,-3.77,-22.27,-23.79,0,*50
1487898171.21,34825,8.69,71850.0,-3.79,-22.37,-23.85,0,*5D
1487898172.44,34826,8.69,71798.3,-3.77,-22.37,-23.79,0,*53
1487898173.64,34827,8.69,71640.0,-3.79,-22.37,-23.79,0,*5C
1487898174.9,34828,8.69,71688.3,-3.77,-22.53,-23.95,0,*5D
1487898176.1,34829,8.69,71662.3,-3.79,-22.67,-24.05,0,*5B
1487898177.36,34830,8.69,71630.8,-3.77,-22.37,-23.69,0,*55
1487898178.59,34831,8.69,71630.8,-3.77,-22.83,-24.05,0,*56
1487898179.84,34832,8.69,71708.5,-3.77,-22.53,-23.95,0,*56
1487898181.09,34833,8.69,71738.8,-3.77,-22.67,-24.15,0,*5F
1487898182.34,34834,8.69,71726.3,-3.77,-22.53,-23.95,0,*50
1487898183.61,34835,8.69,71720.5,-3.77,-22.57,-23.85,0,*54
1487898184.84,34836,8.69,71802.8,-3.79,-22.27,-23.49,0,*5E
1487898186.09,34837,8.69,71830.5,-3.77,-22.57,-24.15,0,*58
1487898187.35,34838,8.69,71802.8,-3.77,-22.73,-24.05,0,*50
1487898188.61,34839,8.69,71814.5,-3.77,-22.57,-23.85,0,*58
1487898189.86,34840,8.69,71814.3,-3.77,-22.87,-24.15,0,*55
1487898191.09,34841,8.69,71846.8,-3.77,-22.93,-24.35,0,*53
1487898192.32,34842,8.69,71864.0,-3.77,-22.57,-24.05,0,*5B
1487898193.59,34843,8.69,71810.8,-3.77,-22.73,-24.15,0,*5D
1487898194.82,34844,8.69,71780.8,-3.77,-22.83,-24.31,0,*53
1487898196.05,34845,8.69,71764.3,-3.77,-22.67,-24.05,0,*5F
1487898197.31,34846,8.69,71792.5,-3.77,-22.37,-23.85,0,*56
1487898198.54,34847,8.69,71788.3,-3.77,-22.37,-23.79,0,*54
1487898199.78,34848,8.69,71800.0,-3.73,-22.37,-23.79,0,*5F
1487898200.99,34849,8.69,71826.5,-3.75,-22.37,-23.79,0,*58
1487898202.22,34850,8.69,71828.8,-3.75,-22.31,-23.79,0,*56
1487898203.44,34851,8.69,71834.5,-3.75,-22.67,-24.15,0,*59
1487898204.68,34852,8.69,71852.0,-3.75,-22.67,-24.25,0,*59
1487898205.88,34853,8.69,71870.3,-3.75,-22.87,-24.47,0,*52
1487898207.12,34854,8.69,71888.8,-3.73,-22.67,-24.31,0,*5C
1487898208.35,34855,8.69,71900.3,-3.75,-22.63,-24.25,0,*5A
1487898209.6,34856,8.69,71904.0,-3.73,-22.37,-24.11,0,*59
1487898210.81,34857,8.69,71860.0,-3.75,-22.63,-24.31,0,*5D
1487898212.01,34858,8.69,71860.5,-3.75,-22.67,-24.47,0,*57
1487898213.25,34859,8.69,71816.5,-3.75,-22.77,-24.57,0,*56
1487898214.46,34860,8.69,71882.3,-3.75,-22.83,-24.47,0,*56
1487898215.68,34861,8.69,71898.5,-3.77,-22.87,-24.61,0,*55
1487898216.92,34862,8.69,71912.0,-3.77,-22.93,-24.61,0,*53
1487898218.18,34863,8.69,71832.0,-3.77,-23.03,-24.61,0,*5A
1487898219.41,34864,8.69,71854.5,-3.77,-22.87,-24.61,0,*50
1487898220.64,34865,8.69,71844.0,-3.77,-22.93,-24.61,0,*54
1487898221.85,34866,8.69,71858.3,-3.75,-22.97,-24.57,0,*54
1487898223.13,34867,8.69,71848.3,-3.77,-23.03,-24.67,0,*58
1487898224.41,34868,8.69,71848.5,-3.77,-23.19,-24.83,0,*56
1487898225.66,34869,8.69,71834.3,-3.77,-23.23,-24.93,0,*5F
1487898226.94,34870,8.69,71880.0,-3.77,-23.03,-24.67,0,*5E
1487898228.17,34871,8.69,71868.8,-3.79,-23.09,-24.67,0,*5B
1487898229.43,34872,8.69,71822.3,-3.77,-22.73,-24.47,0,*58
1487898230.68,34873,8.69,71794.5,-3.77,-23.09,-24.67,0,*57
1487898231.94,34874,8.69,71774.5,-3.77,-23.09,-24.67,0,*50
1487898233.17,34875,8.69,71766.8,-3.79,-23.09,-24.67,0,*5F
1487898234.39,34876,8.69,71774.8,-3.79,-23.09,-24.77,0,*5D
1487898235.62,34877,8.69,71754.0,-3.79,-23.19,-24.77,0,*5D
1487898236.86,34878,8.69,71746.5,-3.77,-23.09,-24.77,0,*5D
1487898238.07,34879,8.69,71770.8,-3.79,-22.93,-24.61,0,*57
1487898239.35,34880,8.69,71798.0,-3.77,-23.03,-24.67,0,*51
1487898240.56,34881,8.69,71846.8,-3.79,-22.53,-24.05,0,*5E
1487898241.81,34882,8.69,71860.3,-3.77,-22.27,-23.95,0,*5E
1487898243.02,34883,8.69,71848.0,-3.79,-22.57,-24.31,0,*5F
1487898244.25,34884,8.69,71828.3,-3.79,-22.53,-23.69,0,*56
1487898245.46,34885,8.69,71832.5,-3.79,-22.37,-24.31,0,*5F
1487898246.67,34886,8.69,71760.0,-3.79,-22.57,-24.31,0,*5A
1487898247.89,34887,8.69,71824.0,-3.79,-22.41,-23.95,0,*55
1487898249.13,34888,8.69,71650.5,-3.79,-22.27,-23.85,0,*5B
1487898250.4,34889,8.69,71768.0,-3.77,-22.21,-23.95,0,*53
1487898251.68,34890,8.69,71770.8,-3.77,-22.21,-23.99,0,*57
1487898252.94,34891,8.69,71796.5,-3.77,-22.41,-24.21,0,*54
1487898254.17,34892,8.69,71774.5,-3.77,-22.57,-24.35,0,*55
1487898255.41,34893,8.69,71718.0,-3.75,-22.97,-24.71,0,*5A
1487898256.67,34894,8.69,71754.8,-3.77,-23.23,-24.77,0,*57
1487898257.9,34895,8.69,71778.3,-3.77,-22.93,-24.61,0,*5B
1487898259.13,34896,8.69,71746.8,-3.77,-22.87,-24.47,0,*59
1487898260.42,34897,8.69,71770.3,-3.77,-21.87,-23.23,0,*5E
1487898261.68,34898,8.69,71838.3,-3.79,-20.49,-21.97,0,*51
1487898262.93,34899,8.69,71808.8,-3.77,-21.77,-23.33,0,*5E
1487898264.13,34900,8.69,71820.0,-3.75,-22.07,-23.75,0,*5B
1487898265.37,34901,8.69,71784.8,-3.75,-22.17,-23.79,0,*57
1487898266.6,34902,8.69,71824.3,-3.75,-22.31,-23.75,0,*5C
1487898267.83,34903,8.69,71812.5,-3.75,-22.31,-23.79,0,*51
1487898269.06,34904,8.63,71858.5,-3.75,-22.07,-23.99,0,*5D
1487898270.27,34905,8.69,71886.5,-3.75,-22.53,-24.61,0,*5D
1487898271.51,34906,8.69,71836.8,-3.73,-22.83,-24.57,0,*50
1487898272.77,34907,8.69,71830.0,-3.73,-22.47,-24.31,0,*59
1487898274.01,34908,8.69,71800.8,-3.75,-22.47,-24.31,0,*50
1487898275.27,34909,8.69,71820.8,-3.73,-22.77,-24.57,0,*54
1487898276.51,34910,8.69,71804.8,-3.75,-22.77,-24.61,0,*5F
1487898277.75,34911,8.69,71740.5,-3.73,-22.83,-24.61,0,*53
1487898279.01,34912,8.69,71750.0,-3.71,-22.93,-24.71,0,*52
1487898280.27,34913,8.69,71806.0,-3.71,-23.13,-24.87,0,*53
1487898281.53,34914,8.69,71806.3,-3.73,-23.29,-24.97,0,*5E
1487898282.79,34915,8.69,71798.8,-3.71,-23.23,-25.09,0,*51
1487898284.05,34916,8.69,71790.3,-3.73,-23.33,-25.13,0,*5A
1487898285.32,34917,8.69,71770.0,-3.73,-23.33,-25.23,0,*58
1487898286.58,34918,8.69,71748.8,-3.73,-23.33,-25.23,0,*57
1487898287.84,34919,8.69,71790.3,-3.71,-22.93,-24.71,0,*59
1487898289.08,34920,8.69,71820.0,-3.75,-23.19,-25.09,0,*5A
1487898290.34,34921,8.69,71754.0,-3.73,-23.29,-24.97,0,*58
1487898291.6,34922,8.69,71842.5,-3.73,-23.33,-25.23,0,*5E
1487898292.85,34923,8.69,71840.8,-3.73,-23.43,-25.39,0,*53
1487898294.11,34924,8.69,71830.8,-3.73,-23.29,-24.93,0,*59
1487898295.36,34925,8.69,71796.5,-3.71,-22.73,-24.57,0,*5C
1487898296.61,34926,8.69,71794.8,-3.71,-22.73,-24.57,0,*5F
1487898297.88,34927,8.69,71730.3,-3.71,-23.09,-24.87,0,*5F
1487898299.11,34928,8.69,71750.3,-3.71,-23.09,-24.93,0,*55
1487898300.34,34929,8.69,71808.0,-3.71,-23.09,-24.93,0,*54
1487898301.6,34930,8.69,71836.8,-3.71,-23.23,-25.09,0,*56
1487898302.83,34931,8.69,71824.0,-3.71,-23.39,-25.23,0,*54
1487898304.1,34932,8.69,71804.0,-3.71,-23.59,-25.55,0,*50
1487898305.35,34933,8.69,71794.8,-3.71,-23.69,-25.49,0,*5F
1487898306.62,34934,8.69,71784.5,-3.71,-23.75,-25.71,0,*5E
1487898307.89,34935,8.69,71816.8,-3.71,-23.85,-25.65,0,*55
1487898309.15,34936,8.69,71866.8,-3.71,-23.85,-25.65,0,*56
1487898310.42,34937,8.69,71848.0,-3.73,-23.65,-25.61,0,*5F
1487898311.66,34938,8.69,71844.3,-3.75,-23.59,-25.55,0,*5E
1487898312.92,34939,8.69,71816.0,-3.75,-23.49,-25.55,0,*5E
1487898314.21,34940,8.69,71714.3,-3.73,-23.49,-25.45,0,*57
1487898315.46,34941,8.69,71792.5,-3.73,-23.59,-25.61,0,*51
1487898316.71,34942,8.69,71808.3,-3.73,-23.75,-25.61,0,*5C
1487898318.0,34943,8.69,71816.0,-3.73,-23.65,-25.55,0,*5B
1487898319.24,34944,8.69,71862.8,-3.73,-23.59,-25.39,0,*59
1487898320.51,34945,8.63,71840.0,-3.73,-23.43,-25.45,0,*58
1487898321.75,34946,8.69,71826.5,-3.71,-23.43,-25.39,0,*52
1487898323.01,34947,8.63,71818.8,-3.71,-23.59,-25.55,0,*52
1487898324.25,34948,8.69,71742.3,-3.75,-23.33,-25.39,0,*5F
1487898325.5,34949,8.69,71776.5,-3.73,-23.43,-25.39,0,*5F
1487898326.79,34950,8.69,71792.5,-3.73,-23.33,-25.29,0,*51
1487898328.01,34951,8.69,71786.0,-3.71,-23.39,-25.23,0,*52
1487898329.28,34952,8.63,71792.0,-3.71,-23.09,-24.71,0,*54
1487898330.52,34953,8.69,71788.0,-3.69,-22.93,-24.71,0,*5E
1487898331.78,34954,8.69,71768.8,-3.71,-23.13,-25.03,0,*5D
1487898333.04,34955,8.69,71774.5,-3.71,-23.53,-25.49,0,*56
1487898334.33,34956,8.69,71836.8,-3.71,-23.69,-25.55,0,*51
1487898335.54,34957,8.69,71808.8,-3.69,-23.13,-24.93,0,*5F
1487898336.8,34958,8.63,71756.5,-3.71,-23.23,-25.09,0,*58
1487898338.02,34959,8.69,71774.8,-3.71,-23.39,-25.19,0,*53
1487898339.28,34960,8.69,71794.5,-3.71,-22.97,-24.87,0,*5A
1487898340.49,34961,8.69,71794.0,-3.69,-23.39,-25.35,0,*5F
1487898341.73,34962,8.69,71766.0,-3.71,-23.43,-25.39,0,*54
1487898343.0,34963,8.69,71822.8,-3.69,-23.85,-25.55,0,*5C
1487898344.29,34964,8.69,71838.3,-3.71,-23.95,-25.71,0,*55
1487898345.52,34965,8.69,71818.0,-3.71,-23.89,-25.65,0,*5C
1487898346.74,34966,8.63,71806.8,-3.69,-24.05,-25.87,0,*59
1487898347.99,34967,8.69,71794.0,-3.71,-24.11,-25.87,0,*54
1487898349.28,34968,8.69,71744.5,-3.71,-23.95,-25.71,0,*59
1487898350.53,34969,8.63,71762.3,-3.69,-23.85,-25.65,0,*55
1487898351.76,34970,8.69,71798.0,-3.71,-24.05,-25.87,0,*57
1487898353.02,34971,8.69,71848.3,-3.71,-24.11,-25.87,0,*53
1487898354.31,34972,8.69,71802.0,-3.73,-24.11,-25.75,0,*5F
1487898355.55,34973,8.69,71834.0,-3.71,-23.89,-25.65,0,*5B
1487898356.79,34974,8.69,71856.8,-3.71,-23.89,-25.65,0,*5C
1487898358.02,34975,8.63,71838.0,-3.71,-23.89,-25.65,0,*5D
1487898359.31,34976,8.63,71808.0,-3.71,-23.95,-25.71,0,*56
1487898360.55,34977,8.69,71788.8,-3.71,-24.05,-25.87,0,*50
1487898361.81,34978,8.63,71780.0,-3.73,-24.15,-25.91,0,*5B
1487898363.05,34979,8.63,71756.3,-3.73,-24.31,-26.23,0,*56
1487898364.29,34980,8.63,71750.8,-3.75,-24.31,-25.97,0,*5A
1487898365.56,34981,8.63,71744.8,-3.73,-23.65,-25.39,0,*5F
1487898366.81,34982,8.69,71740.8,-3.73,-23.75,-25.61,0,*50
1487898368.04,34983,8.63,71746.5,-3.75,-24.15,-25.91,0,*59
1487898369.25,34984,8.69,71768.0,-3.75,-23.79,-25.13,0,*59
1487898370.52,34985,8.63,71772.5,-3.73,-23.59,-25.29,0,*55
1487898371.72,34986,8.69,71788.5,-3.75,-22.63,-24.31,0,*50
1487898372.95,34987,8.63,71780.0,-3.75,-23.33,-24.97,0,*59
1487898374.16,34988,8.63,71798.3,-3.75,-22.83,-24.77,0,*52
1487898375.38,34989,8.63,71788.8,-3.75,-23.89,-25.61,0,*5E
1487898376.6,34990,8.69,71776.0,-3.75,-23.75,-25.39,0,*58
1487898377.83,34991,8.63,71706.0,-3.77,-24.05,-25.91,0,*59
1487898379.11,34992,8.63,71700.5,-3.77,-24.15,-25.81,0,*5A
1487898380.4,34993,8.69,71728.3,-3.77,-24.21,-25.75,0,*57
1487898381.66,34994,8.69,71750.0,-3.77,-24.15,-25.65,0,*56
1487898382.95,34995,8.63,71742.0,-3.77,-24.21,-25.81,0,*5A
1487898384.22,34996,8.69,71730.3,-3.77,-24.35,-25.97,0,*5B
1487898385.5,34997,8.69,71650.3,-3.77,-24.15,-25.75,0,*54
1487898386.79,34998,8.63,71704.3,-3.77,-24.15,-25.75,0,*5B
1487898388.05,34999,8.69,71772.5,-3.77,-23.85,-25.65,0,*55
1487898389.31,35000,8.63,71772.5,-3.79,-24.21,-25.81,0,*50
1487898390.58,35001,8.63,71806.0,-3.75,-24.25,-25.97,0,*5E
1487898391.83,35002,8.69,71840.0,-3.79,-24.31,-25.97,0,*54
1487898393.07,35003,8.63,71840.0,-3.79,-24.21,-26.03,0,*5A
1487898394.34,35004,8.69,71834.5,-3.77,-24.31,-26.29,0,*5A
1487898395.58,35005,8.63,71846.3,-3.79,-24.31,-26.17,0,*58
1487898396.82,35006,8.69,71830.0,-3.79,-24.31,-25.97,0,*50
1487898398.09,35007,8.63,71816.8,-3.77,-23.85,-25.49,0,*54
1487898399.32,35008,8.63,71776.5,-3.79,-23.49,-25.13,0,*5A
1487898400.55,35009,8.63,71812.0,-3.79,-23.33,-24.97,0,*5B
1487898401.79,35010,8.63,71838.5,-3.75,-23.79,-25.29,0,*55
1487898403.03,35011,8.63,71816.3,-3.75,-23.65,-25.39,0,*58
1487898404.29,35012,8.69,71864.5,-3.75,-23.95,-25.55,0,*5E
1487898405.56,35013,8.63,71862.8,-3.75,-23.99,-25.75,0,*51
1487898406.82,35014,8.63,71846.0,-3.77,-24.05,-25.81,0,*5D
1487898408.11,35015,8.69,71878.0,-3.77,-24.21,-25.75,0,*51
1487898409.37,35016,8.63,71790.8,-3.77,-23.99,-25.49,0,*59
1487898410.62,35017,8.69,71868.5,-3.77,-24.05,-25.49,0,*5A
1487898411.88,35018,8.69,71876.5,-3.75,-23.99,-25.45,0,*59
1487898413.14,35019,8.63,71904.8,-3.75,-23.95,-25.55,0,*55
1487898414.37,35020,8.63,71910.5,-3.75,-24.15,-25.87,0,*5F
1487898415.59,35021,8.63,71880.3,-3.75,-24.31,-25.91,0,*5F
1487898416.82,35022,8.63,71876.3,-3.75,-24.61,-26.13,0,*50
1487898418.03,35023,8.63,71862.3,-3.75,-24.57,-26.23,0,*57
1487898419.29,35024,8.63,71846.5,-3.77,-24.77,-26.17,0,*57
1487898420.53,35025,8.63,71824.3,-3.77,-24.61,-26.03,0,*54
1487898421.79,35026,8.63,71854.3,-3.77,-24.77,-26.29,0,*58
1487898423.05,35027,8.63,71868.0,-3.77,-24.67,-26.03,0,*50
1487898424.3,35028,8.63,71890.3,-3.79,-24.47,-25.97,0,*5D
1487898425.54,35029,8.63,71820.5,-3.79,-24.35,-25.75,0,*55
1487898426.78,35030,8.63,71844.8,-3.77,-24.51,-25.91,0,*5B
1487898428.04,35031,8.63,71858.5,-3.77,-24.35,-25.75,0,*52
1487898429.31,35032,8.63,71850.3,-3.77,-24.47,-25.75,0,*54
1487898430.55,35033,8.63,71882.0,-3.79,-24.35,-25.75,0,*5E
1487898431.82,35034,8.63,71882.8,-3.77,-24.51,-25.81,0,*5E
1487898433.08,35035,8.69,71802.8,-3.77,-24.05,-25.29,0,*5C
1487898434.35,35036,8.63,71760.0,-3.77,-23.69,-25.03,0,*5A
1487898435.61,35037,8.63,71724.3,-3.77,-23.95,-25.19,0,*53
1487898436.85,35038,8.63,71744.3,-3.77,-24.31,-25.65,0,*5E
1487898438.11,35039,8.63,71760.5,-3.73,-24.31,-25.61,0,*5F
1487898439.37,35040,8.63,71770.3,-3.75,-24.25,-25.45,0,*54
1487898440.64,35041,8.63,71782.3,-3.73,-23.99,-25.23,0,*53
1487898441.92,35042,8.63,71780.3,-3.73,-24.11,-25.45,0,*57
1487898443.16,35043,8.63,71746.8,-3.73,-24.57,-25.91,0,*5D
1487898444.37,35044,8.63,71754.0,-3.75,-24.61,-25.87,0,*5E
1487898445.64,35045,8.63,71758.0,-3.75,-24.71,-26.13,0,*50
1487898446.88,35046,8.63,71764.5,-3.75,-24.71,-25.91,0,*5A
1487898448.16,35047,8.63,71698.8,-3.75,-24.71,-25.71,0,*55
1487898449.42,35048,8.63,71748.8,-3.75,-24.87,-25.97,0,*5B
1487898450.66,35049,8.63,71824.0,-3.75,-24.71,-25.91,0,*55
1487898451.92,35050,8.63,71794.5,-3.77,-24.61,-25.75,0,*54
1487898453.18,35051,8.63,71778.0,-3.79,-24.83,-26.17,0,*50
1487898454.39,35052,8.63,71794.0,-3.79,-25.13,-26.45,0,*5C
1487898455.62,35053,8.63,71886.8,-3.79,-24.61,-25.81,0,*52
1487898456.86,35054,8.63,71870.0,-3.79,-23.99,-24.93,0,*57
1487898458.1,35055,8.63,71848.0,-3.77,-24.47,-25.65,0,*54
1487898459.36,35056,8.63,71854.5,-3.79,-24.67,-25.81,0,*51
1487898460.57,35057,8.63,71888.8,-3.79,-24.51,-25.91,0,*54
1487898461.83,35058,8.63,71816.3,-3.79,-24.67,-25.97,0,*58
1487898463.1,35059,8.63,71786.3,-3.81,-24.71,-25.87,0,*58
1487898464.37,35060,8.63,71826.5,-3.81,-24.87,-26.03,0,*54
1487898465.59,35061,8.63,71790.8,-3.79,-24.51,-25.65,0,*5A
1487898466.88,35062,8.63,71818.8,-3.81,-24.67,-25.71,0,*5E
1487898468.15,35063,8.63,71790.8,-3.81,-24.51,-25.71,0,*5A
1487898469.43,35064,8.63,71830.5,-3.81,-24.51,-25.71,0,*5D
1487898470.67,35065,8.63,71848.3,-3.81,-24.97,-26.03,0,*50
1487898471.96,35066,8.63,71868.5,-3.81,-24.83,-25.97,0,*58
1487898473.23,35067,8.63,71852.0,-3.81,-24.71,-25.87,0,*55
1487898474.52,35068,8.63,71866.5,-3.81,-24.87,-25.97,0,*52
1487898475.76,35069,8.63,71834.3,-3.81,-24.05,-25.13,0,*55
1487898477.02,35070,8.63,71752.0,-3.81,-24.11,-25.09,0,*53
1487898478.26,35071,8.63,71762.8,-3.79,-24.21,-25.13,0,*5D
1487898479.52,35072,8.63,71790.0,-3.79,-23.99,-25.03,0,*5B
1487898480.78,35073,8.63,71768.8,-3.77,-23.95,-24.97,0,*54
1487898482.04,35074,8.63,71800.3,-3.77,-24.05,-25.03,0,*51
1487898483.3,35075,8.63,71678.3,-3.73,-23.49,-24.57,0,*5B
1487898484.54,35076,8.63,71714.8,-3.75,-23.43,-24.41,0,*53
1487898485.8,35077,8.63,71720.8,-3.73,-23.65,-24.61,0,*52
1487898487.07,35078,8.63,71720.5,-3.73,-23.43,-24.41,0,*5B
1487898488.33,35079,8.63,71686.3,-3.73,-23.95,-24.93,0,*5E
1487898489.59,35080,8.63,71718.5,-3.71,-24.21,-25.23,0,*58
1487898490.88,35081,8.63,71716.8,-3.71,-24.11,-25.03,0,*58
1487898492.11,35082,8.63,71732.0,-3.71,-24.05,-24.93,0,*56
1487898493.35,35083,8.63,71704.5,-3.69,-24.25,-25.23,0,*56
1487898494.6,35084,8.63,71740.3,-3.71,-24.51,-25.49,0,*57
1487898495.87,35085,8.63,71762.5,-3.71,-24.41,-25.39,0,*50
1487898497.13,35086,8.63,71784.0,-3.71,-24.41,-25.39,0,*53
1487898498.37,35087,8.63,71810.0,-3.71,-24.57,-25.39,0,*55
1487898499.61,35088,8.63,71782.5,-3.71,-24.51,-25.23,0,*57
1487898500.91,35089,8.63,71822.5,-3.73,-24.71,-25.71,0,*51
1487898502.15,35090,8.63,71780.0,-3.71,-24.51,-25.35,0,*59
1487898503.44,35091,8.63,71778.5,-3.71,-24.67,-25.71,0,*5D
1487898504.69,35092,8.63,71636.3,-3.71,-24.51,-25.49,0,*50
1487898505.93,35093,8.63,71684.5,-3.71,-24.51,-25.35,0,*5A
1487898507.19,35094,8.63,71756.8,-3.71,-24.21,-25.09,0,*55